TimeMST,TemperatureF,Dew PointF,Humidity,Sea Level PressureIn,VisibilityMPH,Wind Direction,Wind SpeedMPH,Gust SpeedMPH,PrecipitationIn,Events,Conditions,WindDirDegrees,DateUTC
12:56 AM,28.9,24.1,82,30.24,10.0,SSE,4.6,-,N/A,,Overcast,160,2012-11-14 07:56:00
1:56 AM,30.9,25.0,79,30.23,10.0,South,8.1,-,N/A,,Overcast,190,2012-11-14 08:56:00
2:56 AM,30.9,25.0,79,30.23,10.0,ESE,6.9,-,N/A,,Overcast,120,2012-11-14 09:56:00
3:56 AM,27.0,23.0,85,30.22,10.0,WNW,8.1,-,N/A,,Overcast,290,2012-11-14 10:56:00
4:56 AM,28.0,24.1,85,30.23,10.0,Calm,Calm,-,N/A,,Overcast,0,2012-11-14 11:56:00
5:56 AM,28.0,25.0,88,30.22,10.0,SSE,3.5,-,N/A,,Overcast,150,2012-11-14 12:56:00
6:56 AM,28.9,26.1,89,30.22,10.0,South,5.8,-,N/A,,Overcast,170,2012-11-14 13:56:00
7:56 AM,28.0,25.0,88,30.22,10.0,Calm,Calm,-,N/A,,Overcast,0,2012-11-14 14:56:00
8:56 AM,27.0,25.0,92,30.24,7.0,Calm,Calm,-,N/A,,Overcast,0,2012-11-14 15:56:00
9:56 AM,30.0,26.1,85,30.24,10.0,Calm,Calm,-,N/A,,Mostly Cloudy,0,2012-11-14 16:56:00
10:56 AM,32.0,28.0,85,30.24,10.0,South,3.5,-,N/A,,Overcast,190,2012-11-14 17:56:00
11:56 AM,34.0,28.9,82,30.22,10.0,SSW,3.5,-,N/A,,Mostly Cloudy,200,2012-11-14 18:56:00
12:56 PM,33.1,28.0,82,30.23,8.0,Calm,Calm,-,N/A,,Overcast,0,2012-11-14 19:56:00
1:56 PM,33.1,28.9,85,30.23,9.0,SE,3.5,-,N/A,,Overcast,130,2012-11-14 20:56:00
2:56 PM,35.1,28.9,78,30.23,8.0,Calm,Calm,-,N/A,,Overcast,0,2012-11-14 21:56:00
3:56 PM,36.0,30.0,79,30.25,9.0,Calm,Calm,-,N/A,,Overcast,0,2012-11-14 22:56:00
4:56 PM,33.1,28.0,82,30.28,6.0,Calm,Calm,-,N/A,,Haze,0,2012-11-14 23:56:00
5:56 PM,32.0,28.0,85,30.30,8.0,South,4.6,-,N/A,,Clear,180,2012-11-15 00:56:00
6:56 PM,28.9,24.1,82,30.32,10.0,SSW,8.1,-,N/A,,Mostly Cloudy,200,2012-11-15 01:56:00
7:56 PM,28.9,24.1,82,30.34,10.0,NNE,3.5,-,N/A,,Mostly Cloudy,20,2012-11-15 02:56:00
8:56 PM,28.9,25.0,85,30.37,10.0,ESE,3.5,-,N/A,,Mostly Cloudy,110,2012-11-15 03:56:00
9:56 PM,28.0,25.0,88,30.37,7.0,South,8.1,-,N/A,,Mostly Cloudy,190,2012-11-15 04:56:00
10:56 PM,30.0,26.1,85,30.36,10.0,SSW,6.9,-,N/A,,Overcast,200,2012-11-15 05:56:00
11:56 PM,26.1,23.0,88,30.38,9.0,Calm,Calm,-,N/A,,Overcast,0,2012-11-15 06:56:00